User: anonymous   Login
Location: Unspecified
(0.0000°N, 0.0000°E)
Time: 14:49:49
(UTC+00:00)
Language:

ORS OBJECT AA - Orbit

View from above orbital plane
View from above orbital plane
View from above satellite
View from above satellite

Ground track
Ground track

The orbit data is extracted from the following two-line orbital elements,

1 39404U 13064AA  17205.98439622 +.00041937 +00000-0 +22590-3 0  9997
2 39404 040.4974 063.8411 0009350 324.3123 035.7080 15.79273653203633
Epoch (UTC): 24 July 2017 23:37:31
Eccentricity: 0.0009350
inclination: 40.4974°
perigee height: 326 km
apogee height: 339 km
right ascension of ascending node: 63.8411°
argument of perigee: 324.3123°
revolutions per day: 15.79273653
mean anomaly at epoch: 35.7080°
orbit number at epoch: 20363

The dashed part of the orbit path shows where the satellite is in the earth's shadow,  

DLR